Regional Weather Roundup
Issued by NWS Sterling, VA

Home | Current Version | Previous Version | Graphics & Text | Print | Product List | Glossary On
Versions: 1 2 3 4 5 6 7 8 9 10 11 12 13 14 15 16 17 18 19 20 21 22 23 24 25 26 27
000
ASUS41 KLWX 301510
RWRLWX

REGIONAL WEATHER ROUNDUP
NATIONAL WEATHER SERVICE BALTIMORE MD/WASHINGTON DC
1100 AM EDT THU MAR 30 2017

Note: "FAIR" indicates few or no clouds below 12,000 feet
with no significant weather and/or obstructions to visibility.
 TC=TEMPERATURE CELSIUS

 * =Non NWS site. Station does not report precipitation (e.g. rain,
    snow, etc.), thunder, or fog.

DCZ001-MDZ009-015-VAZ040>042-051-053>054-301600-
WASHINGTON METRO

CITY           SKY/WX    TMP DP  RH WIND       PRES   REMARKS
WASHINGTON NAT CLOUDY    50  31  48 E5        30.26F
DULLES         CLOUDY    48  30  49 SE8       30.24S
ANDREWS AFB    CLOUDY    47  31  51 VRB6      30.24F
FT BELVOIR     CLOUDY    49  30  47 E6        30.25S
QUANTICO       CLOUDY    51  35  54 SE5       30.26S
COLLEGE PARK*  CLOUDY    46  29  51 E5        30.25S
LEESBURG*      CLOUDY    48  32  53 SE9       30.24F
MANASSAS*      CLOUDY    49  31  49 SE8       30.24F

$$

MDZ006>007-011-014-301600-
BALTIMORE METRO

CITY           SKY/WX    TMP DP  RH WIND       PRES   REMARKS
BWI AIRPORT    CLOUDY    44  28  53 SE8       30.26F
MD SCIENCE CTR   N/A     46  27  47 MISG      30.27F
MARTIN STATE   CLOUDY    45  30  57 SE8       30.28F
ANNAPOLIS      CLOUDY    45  30  55 E6        30.27F
FORT MEADE*    CLOUDY    45  28  53 E6        30.28F

$$

MDZ012-015-019>023-301600-
MARYLAND EASTERN SHORE

CITY           SKY/WX    TMP DP  RH WIND       PRES   REMARKS
OCEAN CITY     PTSUNNY   48  34  58 E8        30.28R
SALISBURY      PTSUNNY   49  35  58 E8        30.26S
BAY BRIDGE AP* CLOUDY    45  28  53 E6        30.27S
CAMBRIDGE*     PTSUNNY   48  30  49 NE6G14    30.26F
EASTON*        CLOUDY    48  28  46 SE7       30.29F

$$

MDZ017>025-301600-
SOUTHERN MARYLAND

CITY           SKY/WX    TMP DP  RH WIND       PRES   REMARKS
PATUXENT RIVER CLOUDY    47  38  71 E8        30.26F
ST INIGOES     CLOUDY    47  36  65 E10       30.25F
LEONARDTOWN*   CLOUDY    45  32  61 E6        30.26F

$$

MDZ003>005-301600-
NORTH CENTRAL MARYLAND

CITY           SKY/WX    TMP DP  RH WIND       PRES   REMARKS
FREDERICK*     CLOUDY    46  34  61 CALM      30.28S
HAGERSTOWN APT CLOUDY    45  28  51 E5        30.22S
WESTMINSTER*   CLOUDY    45  28  53 SE6       30.23S

$$

MDZ501>502-301600-
WESTERN MARYLAND

CITY           SKY/WX    TMP DP  RH WIND       PRES   REMARKS
OAKLAND*       MOSUNNY   41  30  65 SE21G33   30.02F
CUMBERLAND*    CLOUDY    50  30  46 SE8       30.20F

$$

VAZ025>031-301600-
SHENANDOAH VALLEY

CITY           SKY/WX    TMP DP  RH WIND       PRES   REMARKS
WINCHESTER*    CLOUDY    45  30  57 E7        30.20F
FRONT ROYAL*   CLOUDY    48  32  53 SE7       30.18S
LURAY*         CLOUDY    50  34  53 S8        30.18S
NEW MARKET*    CLOUDY    48  34  57 CALM      30.17F
STAUNTON*      CLOUDY    47  33  58 S7        30.20S
WAYNESBORO*    CLOUDY    46  35  66 SE7       30.18S

$$

WVZ021-048>050-054>055-301600-
EASTERN WEST VIRGINIA PANHANDLE

CITY           SKY/WX    TMP DP  RH WIND       PRES   REMARKS
MARTINSBURG    CLOUDY    45  28  51 E8        30.22S
PETERSBURG*    CLOUDY    48  36  62 CALM      30.14F

$$

VAZ036>039-050-301600-
CENTRAL FOOTHILLS

CITY           SKY/WX    TMP DP  RH WIND       PRES   REMARKS
CHARLOTTESVILL CLOUDY    51  33  50 VRB5      30.22S
CULPEPER*      CLOUDY    50  32  50 SE3       30.24F
ORANGE*        CLOUDY    48  32  53 E5        30.24S
GORDONSVILLE*  CLOUDY    50  33  51 E3        30.22S
WARRENTON*     CLOUDY    51  28  40 SE9       30.23F

$$

VAZ055>057-301600-
NORTH AND CENTRAL PIEDMONT

CITY           SKY/WX    TMP DP  RH WIND       PRES   REMARKS
FREDERICKSBRG* PTSUNNY   50  35  55 E7        30.24F
STAFFORD*      CLOUDY    50  34  55 E9        30.28S

$$

NCZ024-NYZ072-PAZ021-071-VAZ022-071-301600-
OTHER REGIONAL OBSERVATIONS

CITY           SKY/WX    TMP DP  RH WIND       PRES   REMARKS
NEW YORK CITY  SUNNY     45  23  42 VRB6      30.28F
PHILADELPHIA   CLOUDY    45  23  42 E6        30.27F
PITTSBURGH     CLOUDY    49  33  54 SE18      29.97F
ROANOKE        CLOUDY    51  42  71 SE7       30.19S
RICHMOND       CLOUDY    51  38  60 E8        30.23F
RALEIGH        CLOUDY    58  42  55 E9        30.18R

$$

ANZ530>537-301600-
MARINE OBSERVATIONS

STATION/POSITION TIME  TEMP    WIND        PRES
                       AIR SEA DIR/SP/G
                 (UTC) (F)     (DEG/KT/KT) (MB)
THOMAS PT LIGHT  1500   44 48   90/  6/  7   N/A
BALT KEY BRIDGE  1448   43     110/  9/ 11 1025.0F
COVE POINT       1448   46     150/  2/  4 1025.1F
LEWISETTA        1448   45 52  110/ 10/ 12 1024.4F
SOLOMONS ISLAND  1448   45 49  100/  5/  7   N/A
PINEY POINT      1448          110/ 10/ 11   N/A

$$





USA.gov is the U.S. government's official web portal to all federal, state and local government web resources and services.